This demonstration page uses our WeatherBlox Daily Observations layout. Learn more.

36.17497, -115.13722

Hourly Observations for April 8, 2015

Temp ( °F °C ) Dew Point ( °F °C ) Humidity (%) Winds ( mph kmh ) Pressure ( in mb ) Visibility ( mi km ) Precip ( " mm )
12:53 am 00:53 Clear 55 12.8 24 -4.4 30 30 SW 13 20 29.84 1011 10 16.0934 0 0
1:53 am 01:53 Clear 53 11.7 23 -5 31 31 SW 17 28 29.84 1011 10 16.0934 0 0
2:53 am 02:53 Clear 52 11.1 24 -4.4 34 34 WSW 20 31 29.84 1011 10 16.0934 0 0
3:53 am 03:53 Clear 51 10.6 25 -3.9 36 36 WSW 18 30 29.86 1011 10 16.0934 0 0
4:53 am 04:53 Clear 50 10 24 -4.4 36 36 SW 10 17 29.89 1012 10 16.0934 0 0
5:53 am 05:53 Clear 50 10 23 -5 35 35 SW 6 9 29.92 1013 10 16.0934 0 0
6:53 am 06:53 Sunny 50 10 23 -5 35 35 WNW 5 7 29.96 1014 10 16.0934 0 0
7:53 am 07:53 Sunny 53 11.7 20 -6.7 27 27 NNW 5 7 29.97 1015 10 16.0934 0 0
8:53 am 08:53 Sunny 56 13.3 19 -7.2 24 24 NNW 14 22 29.98 1015 10 16.0934 0 0
9:53 am 09:53 Sunny 58 14.4 17 -8.3 20 20 N 16 26 29.99 1016 10 16.0934 0 0
10:53 am 10:53 Sunny 60 15.6 12 -11.1 15 15 N 16 26 30.01 1016 10 16.0934 0 0
11:53 am 11:53 Sunny 62 16.7 11 -11.7 13 13 N 18 30 30.01 1016 10 16.0934 0 0
12:53 pm 12:53 Mostly Sunny 65 18.3 10 -12.2 11 11 N 17 28 29.98 1015 10 16.0934 0 0
1:15 pm 13:15 Mostly Cloudy 62 16.7 10 -12.2 13 13 NW 16 26 29.91 1013 10 16.0934 0 0
1:53 pm 13:53 Partly Cloudy 63 17.2 9 -12.8 12 12 WNW 15 24 29.99 1016 10 16.0934 0 0
2:53 pm 14:53 Sunny 66 18.9 7 -13.9 10 10 N 13 20 29.97 1015 10 16.0934 0 0
3:53 pm 15:53 Sunny 67 19.4 5 -15 8 8 N 16 26 29.96 1015 10 16.0934 0 0
4:53 pm 16:53 Sunny 67 19.4 4 -15.6 8 8 NNW 16 26 29.95 1014 10 16.0934 0 0
5:53 pm 17:53 Sunny 67 19.4 4 -15.6 8 8 N 9 15 29.95 1014 10 16.0934 0 0
6:53 pm 18:53 Sunny 65 18.3 4 -15.6 9 9 NNW 10 17 29.95 1014 10 16.0934 0 0
7:53 pm 19:53 Clear 64 17.8 4 -15.6 9 9 NNW 6 9 29.96 1015 10 16.0934 0 0
8:53 pm 20:53 Clear 61 16.1 5 -15 10 10 NNE 5 7 29.98 1015 10 16.0934 0 0
9:53 pm 21:53 Clear 57 13.9 5 -15 12 12 ENE 6 9 30 1016 10 16.0934 0 0
10:53 pm 22:53 Clear 56 13.3 8 -13.3 14 14 NNW 5 7 30.01 1016 10 16.0934 0 0
11:53 pm 23:53 Clear 53 11.7 10 -12.2 18 18 NW 6 9 30.02 1017 10 16.0934 0 0

Powered by AerisWeather